Regional Weather Roundup
Issued by NWS

Home | Current Version | Previous Version | Graphics & Text | Print | Product List | Glossary On
Versions: 1 2 3 4 5 6 7 8 9 10 11 12 13 14 15 16 17 18 19 20 21 22 23 24 25 26 27 28 29 30 31 32 33 34 35 36 37 38 39 40 41 42 43 44 45 46 47 48 49 50
000
ASUS43 KOAX 172010
RWRNE

WEATHER ROUNDUP FOR NEBRASKA
NATIONAL WEATHER SERVICE OMAHA NE
200 PM CST FRI NOV 17 2017

NOTES: SATELLITE DATA IS BEING USED TO AUGMENT CLOUD COVER ABOVE
       12000 FEET.
       "FAIR" INDICATES FEW OR NO CLOUDS BELOW 12,000 FEET WITH NO
       SIGNIFICANT WEATHER AND/OR OBSTRUCTIONS TO VISIBILITY.


NEZ001>004-019>022-054>056-172100-
NEBRASKA PANHANDLE

CITY           SKY/WX    TMP DP  RH WIND       PRES   REMARKS
SCOTTSBLUFF    LGT RAIN  48  33  56 W3        29.64R
ALLIANCE       CLOUDY    48  30  49 S3        29.61S
CHADRON        LGT RAIN  41  36  82 SE8       29.63F
GORDON         CLOUDY    43  28  54 NE7       29.66R
KIMBALL        CLOUDY    51  32  47 N6        29.62R
SIDNEY         CLOUDY    55  31  39 VRB5      29.59F
$$

NEZ057>060-069>072-079>082-172100-
SOUTHWEST NEBRASKA

CITY           SKY/WX    TMP DP  RH WIND       PRES   REMARKS
NORTH PLATTE   CLOUDY    56  32  40 NE17      29.56F
LEXINGTON      SUNNY     55  33  44 N14       29.56S
MCCOOK         LGT RAIN  60  34  37 N13       29.55S
OGALLALA       SUNNY     57  31  37 E8        29.57F
$$

NEZ005>010-023>029-035>040-094-172100-
NORTH CENTRAL NEBRASKA

CITY           SKY/WX    TMP DP  RH WIND       PRES   REMARKS
VALENTINE      CLOUDY    46  33  60 NE9       29.64R
AINSWORTH      PTSUNNY   49  37  63 NE9       29.62R
BROKEN BOW     MOSUNNY   50  32  50 N21G28    29.55F
O`NEILL        CLOUDY    49  35  58 N16       29.57F
ORD            CLOUDY    50  33  52 N17G23    29.56F
THEDFORD       PTSUNNY   52  32  47 NE12G17   29.61F
$$

NEZ041-046>049-061>064-073>077-083>087-172100-
SOUTH CENTRAL NEBRASKA

CITY           SKY/WX    TMP DP  RH WIND       PRES   REMARKS
GRAND ISLAND   MOSUNNY   57  38  48 N18       29.54S
AURORA         CLOUDY    58  46  63 N17       29.53R
HASTINGS       SUNNY     58  43  57 NE15      29.51F
HEBRON         SUNNY     67  49  51 E3        29.48F
HOLDREGE       SUNNY     57  37  46 N9        29.55R
YORK           MOSUNNY   59  50  72 N8        29.52S
$$

NEZ011>018-030>034-042>045-172100-
NORTHEAST NEBRASKA

CITY           SKY/WX    TMP DP  RH WIND       PRES   REMARKS
NORFOLK        CLOUDY    50  35  56 NW14      29.55R
ALBION         CLOUDY    51  35  55 N15G22    29.55F
BLAIR          CLOUDY    60  54  80 SW5       29.52R HAZE
COLUMBUS       CLOUDY    58  43  57 NW20      29.52F
FREMONT        CLOUDY    60  50  69 W7        29.53S
TEKAMAH        CLOUDY    60  49  66 NW12      29.52S
WAYNE          MOSUNNY   51  33  49 NW13      29.55R
$$

NEZ050>053-065>068-078-088>093-172100-
SOUTHEAST NEBRASKA

CITY           SKY/WX    TMP DP  RH WIND       PRES   REMARKS
LINCOLN        CLOUDY    64  52  64 NW8       29.51F
OMAHA EPPLEY   CLOUDY    58  52  80 SE6       29.51F HAZE
BEATRICE       SUNNY     69  53  56 S8        29.48F
FALLS CITY     CLOUDY    66  56  70 S10       29.50F
NEBRASKA CITY  CLOUDY    64  58  81 S9        29.50F
PLATTSMOUTH    CLOUDY    62  56  82 S7        29.50F
$$

NEZ044-045-051>053-067-172100-
OMAHA AREA

CITY           SKY/WX    TMP DP  RH WIND       PRES   REMARKS
OMAHA EPPLEY   CLOUDY    58  52  80 SE6       29.51F HAZE
BLAIR          CLOUDY    60  54  80 SW5       29.52R HAZE
FREMONT        CLOUDY    60  50  69 W7        29.53S
MILLARD        CLOUDY    63  56  77 CALM      29.51S
OFFUTT AFB     CLOUDY    62  55  75 S5        29.50F
PLATTSMOUTH    CLOUDY    62  56  82 S7        29.50F
WAHOO          CLOUDY    61  50  65 NW6       29.51S
$$




USA.gov is the U.S. government's official web portal to all federal, state and local government web resources and services.